Location: Caicarita
(10.0502°N, 67.6875°W)
Time: 11:22:53
(UTC+00:00)

NOAA 6 - Pass Details

Date: 05 August 2024
Orbit: 769 x 783 km, 98.6° (Epoch: 17 September)

Event Time Altitude Azimuth Distance (km) Brightness Sun altitude
Rises 23:29:59 0° 174° (S) 3,258 7.0 -9.6°
Reaches altitude 10° 23:32:19 10° 177° (S) 2,328 6.3 -10.2°
Maximum altitude 23:37:24 64° 258° (WSW) 856 4.5 -11.4°
Drops below altitude 10° 23:42:28 10° 339° (NNW) 2,318 7.1 -12.5°
Sets 23:44:47 0° 343° (NNW) 3,243 7.8 -13.1°
